CDT,Max TemperatureF,Mean TemperatureF,Min TemperatureF,Max Dew PointF,MeanDew PointF,Min DewpointF,Max Humidity, Mean Humidity, Min Humidity, Max Sea Level PressureIn, Mean Sea Level PressureIn, Min Sea Level PressureIn, Max VisibilityMiles, Mean VisibilityMiles, Min VisibilityMiles, Max Wind SpeedMPH, Mean Wind SpeedMPH, Max Gust SpeedMPH,PrecipitationIn, CloudCover, Events, WindDirDegrees
2013-8-1,79,67,55,63,57,54,100,73,45,30.01,29.99,29.95,10,6,0,18,6,24,0.01,0,Fog,290
2013-8-2,84,73,62,71,64,59,87,73,58,29.96,29.90,29.86,10,9,2,15,6,20,0.20,5,Rain-Thunderstorm,249
2013-8-3,79,68,57,64,56,50,87,62,37,30.12,30.05,29.96,10,10,10,15,6,20,0.00,2,,349
2013-8-4,79,65,51,61,56,50,96,70,43,30.20,30.16,30.13,10,10,10,13,5,16,0.00,2,,52
2013-8-5,72,64,56,63,59,53,93,80,66,30.12,29.99,29.88,10,10,4,28,6,36,0.12,5,Rain,160
2013-8-6,84,76,67,72,68,64,100,85,69,29.91,29.87,29.83,10,6,0,14,7,17,0.05,6,Fog,191
2013-8-7,87,75,63,74,69,62,93,74,55,29.96,29.85,29.80,10,8,3,16,7,21,T,2,Rain,268
2013-8-8,80,71,61,63,59,52,100,73,45,30.02,29.99,29.96,10,9,6,16,7,20,0.00,1,,48
2013-8-9,82,68,54,68,60,53,93,72,50,30.05,30.01,29.99,10,10,6,13,4,18,0.06,2,,265
2013-8-10,81,69,57,65,59,55,93,69,45,30.14,30.11,30.06,10,9,5,10,4,15,0.00,2,,317
2013-8-11,83,68,52,64,59,51,100,74,48,30.14,30.10,30.04,10,10,8,14,4,25,0.00,1,,237
2013-8-12,83,73,62,68,65,61,93,76,58,30.04,29.96,29.87,10,10,8,14,6,17,0.00,3,,263
2013-8-13,73,62,50,61,52,45,93,66,38,30.16,30.07,29.94,10,10,8,16,8,22,0.00,2,,5
2013-8-14,74,60,45,54,49,43,93,67,41,30.24,30.19,30.15,10,10,9,10,3,14,0.00,1,,353
2013-8-15,76,62,48,58,53,46,93,71,49,30.19,30.16,30.12,10,10,9,12,4,14,0.00,2,,249
2013-8-16,83,67,50,57,52,48,96,65,33,30.20,30.16,30.14,10,10,8,12,3,15,0.00,2,,14
2013-8-17,84,67,49,61,52,48,93,64,34,30.25,30.21,30.17,10,9,4,14,4,17,0.00,1,,69
2013-8-18,84,67,49,63,54,47,96,65,34,30.22,30.17,30.12,10,7,0,10,2,15,0.00,0,Fog,195
2013-8-19,85,69,52,63,58,49,96,70,44,30.14,30.10,30.04,10,8,4,14,3,21,0.00,0,,229
2013-8-20,87,73,58,66,62,57,90,65,40,30.13,30.08,30.04,10,7,2,13,4,18,0.00,0,,189
2013-8-21,90,75,59,69,63,57,93,69,44,30.09,30.06,29.98,10,7,1,17,7,21,0.11,2,Rain-Thunderstorm,217
2013-8-22,76,68,60,70,66,60,100,90,79,30.19,30.10,29.99,10,5,0,18,4,24,1.82,5,Fog-Rain-Thunderstorm,233
2013-8-23,83,70,56,64,57,50,100,67,33,30.19,30.14,30.11,10,5,0,15,5,18,0.00,1,Fog,36
2013-8-24,84,70,56,65,60,53,93,72,51,30.27,30.22,30.19,10,9,5,12,5,15,0.00,0,,152
2013-8-25,87,75,62,71,64,57,84,71,57,30.27,30.21,30.15,10,10,10,15,7,18,0.00,0,,196
2013-8-26,88,76,63,74,69,60,87,75,63,30.17,30.10,30.01,10,9,7,16,6,20,0.00,0,,213
2013-8-27,91,82,72,76,72,68,93,76,59,30.01,29.93,29.86,10,9,5,17,9,24,0.00,0,,220
2013-8-28,86,77,68,73,70,66,93,79,65,30.04,29.95,29.85,10,9,6,14,5,17,0.00,3,,28
2013-8-29,88,77,66,71,68,64,97,74,50,30.10,30.05,29.99,10,6,2,9,3,13,0.00,4,,117
2013-8-30,93,79,64,76,69,62,93,77,60,29.99,29.88,29.78,10,8,2,31,7,40,0.79,2,Rain-Thunderstorm,248
2013-8-31,79,72,65,71,67,63,93,84,74,29.89,29.84,29.78,10,9,0,15,5,18,0.21,5,Fog-Rain-Thunderstorm,56